sat.trackr.live / text

‹ back to catalog

QIANFAN-46

NORAD 62247 · 2024-232L

PAYLOAD ACTIVE UNKNOWN

§ Identity

Operator
Country
PRC
Launch date
2024-12-05
Launch site
TAISC
Launch vehicle
Mass (kg)
RCS (m²)

External: N2YO · Heavens-Above · Gunter

§ Orbital elements

Epoch: 2026-05-25T02:54:36.265248Z

Period
106.59 min
Inclination
89.0101°
Eccentricity
0.0016438
Mean motion
13.51006018 rev/d
Perigee alt
1,056.3 km
Apogee alt
1,080.8 km
Semi-major
7,446.7 km
B*
1.0934e-4
RAAN
24.8694°
Arg perigee
85.9040°
Mean anomaly
274.3989°
Rev number
12,127

§ Raw data

QIANFAN-461 62247U 24232L   26145.12125307  .00000083  00000+0  10934-3 0  99932 62247  89.0101  24.8694 0016438  85.9040 274.3989 13.51006018121273

JSON: /api/v1/satellites/62247 · /tle

For live sub-satellite position, see the globe view (requires WebGL).

§ Visibility from observer

Set your observer location to see the next 7 days of passes ≥ 10°. The values pass through the URL so the page stays shareable.

No JS? Fill the form by hand. The geolocation button needs JavaScript.